User: anonymous   Login
Location: Mizzole
(45.4833°N, 11.0500°E)
Time: 18:43:42
(UTC+00:00)
Language:

SJ 16-02 - Orbit

View from above orbital plane
View from above orbital plane
View from above satellite
View from above satellite

Ground track
Ground track

The orbit data is extracted from the following two-line orbital elements,

1 41634U 16043A   19346.46327139  .00000115  00000-0  16425-4 0  9999
2 41634  75.0047  64.1479 0007157  21.0323 339.1145 14.85625380187324
Epoch (UTC): 12 December 2019 11:07:06
Eccentricity: 0.0007157
inclination: 75.0047°
perigee height: 606 km
apogee height: 616 km
right ascension of ascending node: 64.1479°
argument of perigee: 21.0323°
revolutions per day: 14.85625380
mean anomaly at epoch: 339.1145°
orbit number at epoch: 18732

The dashed part of the orbit path shows where the satellite is in the earth's shadow,  

DLR